,,,PA_Meas_PMT16A,,PR_Meas_QMR101_102,,RH_Meas_QMH101,,SR_Meas_QMS101,,TA_Meas_QMH101,,GenWind,,GenWind,
date,time,status,PA,status,PR,status,RH,status,SR,status,TA,status,DirAvg,status,SpdAvg,
2009-01-02, 00:00:05,VALID,1008.54,VALID,0,VALID,94.4755,VALID,0.105969,VALID,23.6727,VALID,2,VALID,0,
2009-01-02, 00:01:05,VALID,1008.57,VALID,0,VALID,94.5136,VALID,0,VALID,23.6727,VALID,2,VALID,0,
2009-01-02, 00:02:05,VALID,1008.57,VALID,0,VALID,94.5288,VALID,0.105969,VALID,23.6727,VALID,2,VALID,0,
2009-01-02, 00:03:05,VALID,1008.56,VALID,0,VALID,94.5517,VALID,0.105969,VALID,23.6727,VALID,2,VALID,0,
2009-01-02, 00:04:05,VALID,1008.57,VALID,0,VALID,94.5288,VALID,0.105969,VALID,23.6532,VALID,2,VALID,0,
2009-01-02, 00:05:05,VALID,1008.58,VALID,0,VALID,94.5441,VALID,0.105969,VALID,23.6727,VALID,2,VALID,0,
2009-01-02, 00:06:05,VALID,1008.59,VALID,0,VALID,94.5517,VALID,0,VALID,23.6727,VALID,2,VALID,0,
2009-01-02, 00:07:05,VALID,1008.63,VALID,0,VALID,94.5517,VALID,0.105969,VALID,23.6532,VALID,2,VALID,0,
2009-01-02, 00:08:05,VALID,1008.63,VALID,0,VALID,94.5517,VALID,0.105969,VALID,23.6532,VALID,2,VALID,0,
2009-01-02, 00:09:05,VALID,1008.6,VALID,0,VALID,94.567,VALID,0.105969,VALID,23.6125,VALID,2,VALID,0,
2009-01-02, 00:10:05,VALID,1008.61,VALID,0,VALID,94.5441,VALID,0,VALID,23.6161,VALID,2,VALID,0,
2009-01-02, 00:11:05,VALID,1008.6,VALID,0,VALID,94.4983,VALID,0,VALID,23.5576,VALID,2,VALID,0,
2009-01-02, 00:12:05,VALID,1008.6,VALID,0,VALID,94.4907,VALID,0,VALID,23.5576,VALID,2,VALID,0,
2009-01-02, 00:13:05,VALID,1008.61,VALID,0,VALID,94.4831,VALID,0,VALID,23.5576,VALID,2,VALID,0,
2009-01-02, 00:14:05,VALID,1008.61,VALID,0,VALID,94.4755,VALID,0,VALID,23.5381,VALID,2,VALID,0,
2009-01-02, 00:15:05,VALID,1008.62,VALID,0,VALID,94.4831,VALID,0,VALID,23.5576,VALID,2,VALID,0,
2009-01-02, 00:16:05,VALID,1008.62,VALID,0,VALID,94.5441,VALID,0,VALID,23.5966,VALID,2,VALID,0,
2009-01-02, 00:17:05,VALID,1008.63,VALID,0,VALID,94.5822,VALID,0,VALID,23.655,VALID,2,VALID,0,
2009-01-02, 00:18:05,VALID,1008.63,VALID,0,VALID,94.5822,VALID,0,VALID,23.6356,VALID,2,VALID,0,
2009-01-02, 00:19:05,VALID,1008.62,VALID,0,VALID,94.5898,VALID,0,VALID,23.6161,VALID,2,VALID,0,
2009-01-02, 00:20:05,VALID,1008.61,VALID,0,VALID,94.5975,VALID,0,VALID,23.6161,VALID,2,VALID,0,
2009-01-02, 00:21:05,VALID,1008.61,VALID,0,VALID,94.6203,VALID,0,VALID,23.655,VALID,2,VALID,0,
2009-01-02, 00:22:05,VALID,1008.58,VALID,0,VALID,94.6356,VALID,0,VALID,23.655,VALID,2,VALID,0,
2009-01-02, 00:23:05,VALID,1008.58,VALID,0,VALID,94.628,VALID,0,VALID,23.6356,VALID,2,VALID,0,
2009-01-02, 00:24:05,VALID,1008.57,VALID,0,VALID,94.628,VALID,0,VALID,23.6161,VALID,2,VALID,0,
2009-01-02, 00:25:05,VALID,1008.58,VALID,0,VALID,94.6356,VALID,0.105969,VALID,23.6338,VALID,2,VALID,0,
2009-01-02, 00:26:05,VALID,1008.57,VALID,0,VALID,94.6356,VALID,0.105969,VALID,23.6532,VALID,2,VALID,0,
2009-01-02, 00:27:05,VALID,1008.56,VALID,0,VALID,94.6432,VALID,0.105969,VALID,23.632,VALID,2,VALID,0,
2009-01-02, 00:28:05,VALID,1008.57,VALID,0,VALID,94.6661,VALID,0,VALID,23.6532,VALID,2,VALID,0,
2009-01-02, 00:29:05,VALID,1008.55,VALID,0,VALID,94.6585,VALID,0,VALID,23.6532,VALID,2,VALID,0,
2009-01-02, 00:30:05,VALID,1008.54,VALID,0,VALID,94.6661,VALID,0.105969,VALID,23.6338,VALID,2,VALID,0,
2009-01-02, 00:31:05,VALID,1008.53,VALID,0,VALID,94.689,VALID,0.105969,VALID,23.6532,VALID,2,VALID,0,
2009-01-02, 00:32:05,VALID,1008.51,VALID,0,VALID,94.6814,VALID,0.105969,VALID,23.6532,VALID,2,VALID,0,
2009-01-02, 00:33:05,VALID,1008.49,VALID,0,VALID,94.6737,VALID,0.105969,VALID,23.6338,VALID,2,VALID,0,
2009-01-02, 00:34:05,VALID,1008.46,VALID,0,VALID,94.6661,VALID,0.105969,VALID,23.5948,VALID,2,VALID,0,
2009-01-02, 00:35:05,VALID,1008.46,VALID,0,VALID,94.6508,VALID,0.105969,VALID,23.554,VALID,2,VALID,0,
2009-01-02, 00:36:04,VALID,1008.42,VALID,0,VALID,94.628,VALID,0.105969,VALID,23.5558,VALID,2,VALID,0,
2009-01-02, 00:37:04,VALID,1008.42,VALID,0,VALID,94.6356,VALID,0.105969,VALID,23.5363,VALID,2,VALID,0,
2009-01-02, 00:38:04,VALID,1008.4,VALID,0,VALID,94.628,VALID,0.105969,VALID,23.5363,VALID,2,VALID,0,
2009-01-02, 00:39:04,VALID,1008.41,VALID,0,VALID,94.6356,VALID,0.105969,VALID,23.5363,VALID,2,VALID,0,
2009-01-02, 00:40:04,VALID,1008.39,VALID,0,VALID,94.6585,VALID,0,VALID,23.5381,VALID,2,VALID,0,
2009-01-02, 00:41:04,VALID,1008.39,VALID,0,VALID,94.6585,VALID,0,VALID,23.5186,VALID,2,VALID,0,
2009-01-02, 00:42:04,VALID,1008.36,VALID,0,VALID,94.6737,VALID,0,VALID,23.5381,VALID,2,VALID,0,
2009-01-02, 00:43:04,VALID,1008.34,VALID,0,VALID,94.6661,VALID,0,VALID,23.5186,VALID,2,VALID,0,
2009-01-02, 00:44:04,VALID,1008.31,VALID,0,VALID,94.689,VALID,0,VALID,23.4992,VALID,2,VALID,0,
2009-01-02, 00:45:04,VALID,1008.32,VALID,0,VALID,94.6814,VALID,0,VALID,23.4797,VALID,2,VALID,0,
2009-01-02, 00:46:04,VALID,1008.29,VALID,0,VALID,94.6661,VALID,0,VALID,23.4602,VALID,2,VALID,0,
2009-01-02, 00:47:04,VALID,1008.3,VALID,0,VALID,94.689,VALID,0,VALID,23.4797,VALID,2,VALID,0,
2009-01-02, 00:48:04,VALID,1008.3,VALID,0,VALID,94.689,VALID,0,VALID,23.4602,VALID,2,VALID,0,
2009-01-02, 00:49:04,VALID,1008.27,VALID,0,VALID,94.6966,VALID,0,VALID,23.4797,VALID,2,VALID,0,
2009-01-02, 00:50:04,VALID,1008.26,VALID,0,VALID,94.7271,VALID,0,VALID,23.4797,VALID,2,VALID,0,
2009-01-02, 00:51:04,VALID,1008.25,VALID,0,VALID,94.7195,VALID,0,VALID,23.4602,VALID,2,VALID,0,
2009-01-02, 00:52:04,VALID,1008.24,VALID,0,VALID,94.7271,VALID,0,VALID,23.4602,VALID,2,VALID,0,
2009-01-02, 00:53:04,VALID,1008.2,VALID,0,VALID,94.7271,VALID,0,VALID,23.4407,VALID,2,VALID,0,
2009-01-02, 00:54:04,VALID,1008.2,VALID,0,VALID,94.7576,VALID,0,VALID,23.4602,VALID,2,VALID,0,
2009-01-02, 00:55:04,VALID,1008.19,VALID,0,VALID,94.7652,VALID,0,VALID,23.4194,VALID,2,VALID,0,
2009-01-02, 00:56:04,VALID,1008.18,VALID,0,VALID,94.7652,VALID,0,VALID,23.4389,VALID,2,VALID,0,
2009-01-02, 00:57:04,VALID,1008.18,VALID,0,VALID,94.7652,VALID,0,VALID,23.4194,VALID,2,VALID,0,
2009-01-02, 00:58:04,VALID,1008.23,VALID,0,VALID,94.7652,VALID,0,VALID,23.4407,VALID,2,VALID,0,
2009-01-02, 00:59:04,VALID,1008.25,VALID,0,VALID,94.7957,VALID,0,VALID,23.4389,VALID,2,VALID,0,
2009-01-02, 01:00:04,VALID,1008.26,VALID,0,VALID,94.7881,VALID,0,VALID,23.4407,VALID,2,VALID,0,
2009-01-02, 01:01:04,VALID,1008.26,VALID,0,VALID,94.7881,VALID,0,VALID,23.4407,VALID,2,VALID,0,
2009-01-02, 01:02:04,VALID,1008.26,VALID,0,VALID,94.7957,VALID,0,VALID,23.4407,VALID,2,VALID,0,
2009-01-02, 01:03:04,VALID,1008.26,VALID,0,VALID,94.7881,VALID,0,VALID,23.4017,VALID,2,VALID,0,
2009-01-02, 01:04:04,VALID,1008.29,VALID,0,VALID,94.7957,VALID,0,VALID,23.3823,VALID,2,VALID,0,
2009-01-02, 01:05:04,VALID,1008.28,VALID,0,VALID,94.7805,VALID,0,VALID,23.4017,VALID,2,VALID,0,
2009-01-02, 01:06:04,VALID,1008.31,VALID,0,VALID,94.7957,VALID,0,VALID,23.3628,VALID,2,VALID,0,
2009-01-02, 01:07:04,VALID,1008.34,VALID,0,VALID,94.7424,VALID,0,VALID,23.3628,VALID,2,VALID,0,
2009-01-02, 01:08:04,VALID,1008.32,VALID,0,VALID,94.628,VALID,0,VALID,23.3645,VALID,2,VALID,0,
2009-01-02, 01:09:04,VALID,1008.32,VALID,0,VALID,94.628,VALID,0,VALID,23.3433,VALID,2,VALID,0,
2009-01-02, 01:10:04,VALID,1008.33,VALID,0,VALID,94.6432,VALID,0,VALID,23.3628,VALID,2,VALID,0,
2009-01-02, 01:11:04,VALID,1008.32,VALID,0,VALID,94.6585,VALID,0,VALID,23.3628,VALID,2,VALID,0,
2009-01-02, 01:12:04,VALID,1008.34,VALID,0,VALID,94.6661,VALID,0,VALID,23.3628,VALID,2,VALID,0,
2009-01-02, 01:13:04,VALID,1008.34,VALID,0,VALID,94.6661,VALID,0,VALID,23.3628,VALID,2,VALID,0,
2009-01-02, 01:14:04,VALID,1008.29,VALID,0,VALID,94.6814,VALID,0,VALID,23.3628,VALID,2,VALID,0,
2009-01-02, 01:15:04,VALID,1008.27,VALID,0,VALID,94.7119,VALID,0,VALID,23.3628,VALID,2,VALID,0,
2009-01-02, 01:16:04,VALID,1008.27,VALID,0,VALID,94.7195,VALID,0,VALID,23.3823,VALID,2,VALID,0,
2009-01-02, 01:17:04,VALID,1008.21,VALID,0,VALID,94.7347,VALID,0.105969,VALID,23.4,VALID,2,VALID,0,
2009-01-02, 01:18:04,VALID,1008.23,VALID,0,VALID,94.7347,VALID,0.105969,VALID,23.4,VALID,2,VALID,0,
2009-01-02, 01:19:04,VALID,1008.21,VALID,0,VALID,94.7424,VALID,0,VALID,23.4212,VALID,2,VALID,0,
2009-01-02, 01:20:04,VALID,1008.17,VALID,0,VALID,94.7424,VALID,0,VALID,23.4,VALID,2,VALID,0,
2009-01-02, 01:21:04,VALID,1008.16,VALID,0,VALID,94.7729,VALID,0,VALID,23.4,VALID,2,VALID,0,
2009-01-02, 01:22:04,VALID,1008.15,VALID,0,VALID,94.7805,VALID,0.105969,VALID,23.4194,VALID,2,VALID,0,
2009-01-02, 01:23:04,VALID,1008.13,VALID,0,VALID,94.7805,VALID,0.105969,VALID,23.4389,VALID,2,VALID,0,
2009-01-02, 01:24:04,VALID,1008.1,VALID,0,VALID,94.7957,VALID,0.105969,VALID,23.4194,VALID,2,VALID,0,
2009-01-02, 01:25:04,VALID,1008.09,VALID,0,VALID,94.7805,VALID,0.105969,VALID,23.4194,VALID,2,VALID,0,
2009-01-02, 01:26:04,VALID,1008.08,VALID,0,VALID,94.7881,VALID,0.105969,VALID,23.4194,VALID,2,VALID,0,
2009-01-02, 01:27:04,VALID,1008.05,VALID,0,VALID,94.811,VALID,0.105969,VALID,23.4194,VALID,2,VALID,0,
2009-01-02, 01:28:04,VALID,1008.08,VALID,0,VALID,94.8262,VALID,0,VALID,23.4194,VALID,2,VALID,0,
2009-01-02, 01:29:04,VALID,1008.02,VALID,0,VALID,94.8339,VALID,0,VALID,23.4407,VALID,2,VALID,0,
2009-01-02, 01:30:04,VALID,1008.01,VALID,0,VALID,94.8491,VALID,0,VALID,23.4389,VALID,2,VALID,0,
2009-01-02, 01:31:04,VALID,1008.02,VALID,0,VALID,94.8491,VALID,0.105969,VALID,23.4372,VALID,2,VALID,0,
2009-01-02, 01:32:04,VALID,1008.02,VALID,0,VALID,94.8644,VALID,0.105969,VALID,23.4584,VALID,2,VALID,0,
2009-01-02, 01:33:04,VALID,1007.99,VALID,0,VALID,94.8796,VALID,0.105969,VALID,23.4779,VALID,2,VALID,0,
2009-01-02, 01:34:04,VALID,1007.97,VALID,0,VALID,94.8644,VALID,0,VALID,23.4779,VALID,2,VALID,0,
2009-01-02, 01:35:04,VALID,1007.96,VALID,0,VALID,94.872,VALID,0,VALID,23.4992,VALID,2,VALID,0,
2009-01-02, 01:36:04,VALID,1007.97,VALID,0,VALID,94.872,VALID,0,VALID,23.4974,VALID,2,VALID,0,
2009-01-02, 01:37:04,VALID,1007.96,VALID,0,VALID,94.8796,VALID,0.105969,VALID,23.5169,VALID,2,VALID,0,
2009-01-02, 01:38:04,VALID,1007.95,VALID,0,VALID,94.8796,VALID,0.105969,VALID,23.4974,VALID,2,VALID,0,
2009-01-02, 01:39:04,VALID,1007.96,VALID,0,VALID,94.872,VALID,0.105969,VALID,23.5169,VALID,2,VALID,0,
2009-01-02, 01:40:04,VALID,1007.94,VALID,0,VALID,94.8873,VALID,0.105969,VALID,23.5363,VALID,2,VALID,0,
2009-01-02, 01:41:04,VALID,1007.94,VALID,0,VALID,94.9025,VALID,0,VALID,23.5363,VALID,2,VALID,0,
2009-01-02, 01:42:04,VALID,1007.93,VALID,0,VALID,94.8949,VALID,0,VALID,23.5753,VALID,2,VALID,0,
2009-01-02, 01:43:04,VALID,1007.92,VALID,0,VALID,94.9025,VALID,0,VALID,23.5948,VALID,87,VALID,0,
2009-01-02, 01:44:04,VALID,1007.91,VALID,0,VALID,94.933,VALID,0,VALID,23.6338,VALID,128,VALID,0,
2009-01-02, 01:45:04,VALID,1007.86,VALID,0,VALID,94.9406,VALID,0.105969,VALID,23.6338,VALID,128,VALID,0,
2009-01-02, 01:46:04,VALID,1007.87,VALID,0,VALID,94.9178,VALID,0,VALID,23.6532,VALID,128,VALID,0,
2009-01-02, 01:47:04,VALID,1007.82,VALID,0,VALID,94.9178,VALID,0,VALID,23.6532,VALID,128,VALID,0,
2009-01-02, 01:48:04,VALID,1007.83,VALID,0,VALID,94.9101,VALID,0,VALID,23.6727,VALID,128,VALID,0,
2009-01-02, 01:49:04,VALID,1007.81,VALID,0,VALID,94.9025,VALID,0,VALID,23.7117,VALID,128,VALID,0,
2009-01-02, 01:50:04,VALID,1007.8,VALID,0,VALID,94.9025,VALID,0,VALID,23.6922,VALID,128,VALID,0,
2009-01-02, 01:51:04,VALID,1007.81,VALID,0,VALID,94.8949,VALID,0,VALID,23.6922,VALID,128,VALID,0,
2009-01-02, 01:52:04,VALID,1007.83,VALID,0,VALID,94.8873,VALID,0.105969,VALID,23.7117,VALID,128,VALID,0,
2009-01-02, 01:53:04,VALID,1007.82,VALID,0,VALID,94.8796,VALID,0.105969,VALID,23.7312,VALID,128,VALID,0,
2009-01-02, 01:54:04,VALID,1007.84,VALID,0,VALID,94.8873,VALID,0.105969,VALID,23.7507,VALID,128,VALID,0,
2009-01-02, 01:55:04,VALID,1007.81,VALID,0,VALID,94.8644,VALID,0,VALID,23.733,VALID,128,VALID,0,
2009-01-02, 01:56:04,VALID,1007.83,VALID,0,VALID,94.8415,VALID,0,VALID,23.733,VALID,128,VALID,0,
2009-01-02, 01:57:04,VALID,1007.86,VALID,0,VALID,94.8415,VALID,0,VALID,23.7525,VALID,128,VALID,0,
2009-01-02, 01:58:04,VALID,1007.83,VALID,0,VALID,94.8262,VALID,0,VALID,23.7525,VALID,128,VALID,0,
2009-01-02, 01:59:04,VALID,1007.85,VALID,0,VALID,94.8034,VALID,0,VALID,23.733,VALID,128,VALID,0,
2009-01-02, 02:00:04,VALID,1007.81,VALID,0,VALID,94.7957,VALID,0,VALID,23.733,VALID,128,VALID,0,
2009-01-02, 02:01:04,VALID,1007.79,VALID,0,VALID,94.7957,VALID,0,VALID,23.733,VALID,128,VALID,0,
2009-01-02, 02:02:04,VALID,1007.76,VALID,0,VALID,94.7805,VALID,0,VALID,23.733,VALID,128,VALID,0,
2009-01-02, 02:03:04,VALID,1007.76,VALID,0,VALID,94.7652,VALID,0,VALID,23.7738,VALID,128,VALID,0,
2009-01-02, 02:04:04,VALID,1007.71,VALID,0,VALID,94.7576,VALID,0,VALID,23.772,VALID,128,VALID,0,
2009-01-02, 02:05:04,VALID,1007.67,VALID,0,VALID,94.7119,VALID,0,VALID,23.7135,VALID,128,VALID,0,
2009-01-02, 02:06:04,VALID,1007.69,VALID,0,VALID,94.6966,VALID,0,VALID,23.7135,VALID,128,VALID,0,
2009-01-02, 02:07:04,VALID,1007.66,VALID,0,VALID,94.6737,VALID,0,VALID,23.6745,VALID,128,VALID,0,
2009-01-02, 02:08:04,VALID,1007.67,VALID,0,VALID,94.6432,VALID,0,VALID,23.655,VALID,128,VALID,0,
2009-01-02, 02:09:04,VALID,1007.64,VALID,0,VALID,94.6356,VALID,0,VALID,23.6763,VALID,128,VALID,0,
2009-01-02, 02:10:04,VALID,1007.67,VALID,0,VALID,94.5822,VALID,0,VALID,23.6143,VALID,128,VALID,0,
2009-01-02, 02:11:04,VALID,1007.67,VALID,0,VALID,94.567,VALID,0,VALID,23.5948,VALID,128,VALID,0,
2009-01-02, 02:12:04,VALID,1007.67,VALID,0,VALID,94.5517,VALID,0,VALID,23.5948,VALID,128,VALID,0,
2009-01-02, 02:13:04,VALID,1007.69,VALID,0,VALID,94.5212,VALID,0.105969,VALID,23.5753,VALID,128,VALID,0,
2009-01-02, 02:14:04,VALID,1007.62,VALID,0,VALID,94.5136,VALID,0,VALID,23.5558,VALID,128,VALID,0,
2009-01-02, 02:15:04,VALID,1007.65,VALID,0,VALID,94.506,VALID,0.105969,VALID,23.5558,VALID,128,VALID,0,
2009-01-02, 02:16:04,VALID,1007.68,VALID,0,VALID,94.4907,VALID,0.105969,VALID,23.5363,VALID,128,VALID,0,
2009-01-02, 02:17:04,VALID,1007.67,VALID,0,VALID,94.4755,VALID,0.105969,VALID,23.5363,VALID,128,VALID,0,
2009-01-02, 02:18:04,VALID,1007.7,VALID,0,VALID,94.4678,VALID,0,VALID,23.5363,VALID,128,VALID,0,
2009-01-02, 02:19:04,VALID,1007.69,VALID,0,VALID,94.4602,VALID,0.105969,VALID,23.5558,VALID,128,VALID,0,
2009-01-02, 02:20:04,VALID,1007.68,VALID,0,VALID,94.506,VALID,0,VALID,23.5363,VALID,128,VALID,0,
2009-01-02, 02:21:04,VALID,1007.69,VALID,0,VALID,94.506,VALID,0,VALID,23.5558,VALID,128,VALID,0,
2009-01-02, 02:22:04,VALID,1007.68,VALID,0,VALID,94.506,VALID,0,VALID,23.5363,VALID,128,VALID,0,
2009-01-02, 02:23:04,VALID,1007.68,VALID,0,VALID,94.5136,VALID,0.105969,VALID,23.5169,VALID,128,VALID,0,
2009-01-02, 02:24:04,VALID,1007.65,VALID,0,VALID,94.5136,VALID,0.105969,VALID,23.4974,VALID,128,VALID,0,
2009-01-02, 02:25:04,VALID,1007.6,VALID,0,VALID,94.5136,VALID,0,VALID,23.4992,VALID,128,VALID,0,
2009-01-02, 02:26:04,VALID,1007.59,VALID,0,VALID,94.5288,VALID,0,VALID,23.4797,VALID,128,VALID,0,
2009-01-02, 02:27:04,VALID,1007.58,VALID,0,VALID,94.5288,VALID,0,VALID,23.4407,VALID,128,VALID,0,
2009-01-02, 02:28:04,VALID,1007.57,VALID,0,VALID,94.5288,VALID,0,VALID,23.4602,VALID,128,VALID,0,
2009-01-02, 02:29:04,VALID,1007.56,VALID,0,VALID,94.5212,VALID,0,VALID,23.4212,VALID,128,VALID,0,
2009-01-02, 02:30:04,VALID,1007.56,VALID,0,VALID,94.5365,VALID,0,VALID,23.4212,VALID,128,VALID,0,
2009-01-02, 02:31:04,VALID,1007.54,VALID,0,VALID,94.5441,VALID,0,VALID,23.423,VALID,128,VALID,0,
2009-01-02, 02:32:04,VALID,1007.51,VALID,0,VALID,94.5517,VALID,0,VALID,23.3823,VALID,128,VALID,0,
2009-01-02, 02:33:04,VALID,1007.51,VALID,0,VALID,94.567,VALID,0,VALID,23.3823,VALID,128,VALID,0,
2009-01-02, 02:34:04,VALID,1007.49,VALID,0,VALID,94.5822,VALID,0,VALID,23.3823,VALID,128,VALID,0,
2009-01-02, 02:35:04,VALID,1007.46,VALID,0,VALID,94.5975,VALID,0,VALID,23.3628,VALID,128,VALID,0,
2009-01-02, 02:36:04,VALID,1007.49,VALID,0,VALID,94.5975,VALID,0,VALID,23.3433,VALID,128,VALID,0,
2009-01-02, 02:37:04,VALID,1007.46,VALID,0,VALID,94.5975,VALID,0,VALID,23.3628,VALID,128,VALID,0,
2009-01-02, 02:38:04,VALID,1007.44,VALID,0,VALID,94.6051,VALID,0,VALID,23.3823,VALID,128,VALID,0,
2009-01-02, 02:39:04,VALID,1007.44,VALID,0,VALID,94.628,VALID,0,VALID,23.3823,VALID,128,VALID,0,
2009-01-02, 02:40:04,VALID,1007.48,VALID,0,VALID,94.628,VALID,0,VALID,23.3823,VALID,128,VALID,0,
2009-01-02, 02:41:04,VALID,1007.46,VALID,0,VALID,94.6356,VALID,0,VALID,23.3628,VALID,128,VALID,0,
2009-01-02, 02:42:04,VALID,1007.48,VALID,0,VALID,94.6737,VALID,0,VALID,23.3823,VALID,128,VALID,0,
2009-01-02, 02:43:04,VALID,1007.52,VALID,0,VALID,94.6585,VALID,0,VALID,23.3823,VALID,128,VALID,0,
2009-01-02, 02:44:04,VALID,1007.56,VALID,0,VALID,94.6814,VALID,0,VALID,23.4017,VALID,128,VALID,0,
2009-01-02, 02:45:04,VALID,1007.54,VALID,0,VALID,94.7042,VALID,0,VALID,23.3823,VALID,128,VALID,0,
2009-01-02, 02:46:04,VALID,1007.57,VALID,0,VALID,94.7042,VALID,0,VALID,23.3823,VALID,128,VALID,0,
2009-01-02, 02:47:04,VALID,1007.56,VALID,0,VALID,94.6814,VALID,0,VALID,23.4017,VALID,128,VALID,0,
2009-01-02, 02:48:04,VALID,1007.56,VALID,0,VALID,94.7271,VALID,0,VALID,23.3823,VALID,128,VALID,0,
2009-01-02, 02:49:04,VALID,1007.59,VALID,0,VALID,94.7271,VALID,0,VALID,23.4017,VALID,84,VALID,0,
2009-01-02, 02:50:04,VALID,1007.59,VALID,0,VALID,94.7195,VALID,0,VALID,23.3628,VALID,53,VALID,0,
2009-01-02, 02:51:04,VALID,1007.59,VALID,0,VALID,94.7424,VALID,0,VALID,23.4017,VALID,26,VALID,0,
2009-01-02, 02:52:04,VALID,1007.6,VALID,0,VALID,94.7347,VALID,0,VALID,23.4035,VALID,9,VALID,0,
2009-01-02, 02:53:04,VALID,1007.59,VALID,0,VALID,94.7652,VALID,0,VALID,23.4017,VALID,2,VALID,0,
2009-01-02, 02:54:04,VALID,1007.58,VALID,0,VALID,94.7652,VALID,0,VALID,23.3823,VALID,1,VALID,0,
2009-01-02, 02:55:04,VALID,1007.58,VALID,0,VALID,94.7576,VALID,0.105969,VALID,23.3805,VALID,355,VALID,0,
2009-01-02, 02:56:04,VALID,1007.58,VALID,0,VALID,94.7805,VALID,0.105969,VALID,23.3805,VALID,354,VALID,0,
2009-01-02, 02:57:04,VALID,1007.56,VALID,0,VALID,94.7805,VALID,0.105969,VALID,23.4,VALID,354,VALID,0,
2009-01-02, 02:58:04,VALID,1007.58,VALID,0,VALID,94.7957,VALID,0.105969,VALID,23.4,VALID,354,VALID,0,
2009-01-02, 02:59:04,VALID,1007.6,VALID,0,VALID,94.7957,VALID,0.105969,VALID,23.4,VALID,354,VALID,0,
2009-01-02, 03:00:04,VALID,1007.59,VALID,0,VALID,94.7881,VALID,0.105969,VALID,23.4,VALID,354,VALID,0,
2009-01-02, 03:01:04,VALID,1007.6,VALID,0,VALID,94.7805,VALID,0.105969,VALID,23.4194,VALID,354,VALID,0,
2009-01-02, 03:02:04,VALID,1007.6,VALID,0,VALID,94.7881,VALID,0.105969,VALID,23.361,VALID,354,VALID,0,
2009-01-02, 03:03:04,VALID,1007.58,VALID,0,VALID,94.7957,VALID,0.105969,VALID,23.361,VALID,354,VALID,0,
2009-01-02, 03:04:04,VALID,1007.58,VALID,0,VALID,94.8034,VALID,0.105969,VALID,23.361,VALID,354,VALID,0,
2009-01-02, 03:05:04,VALID,1007.57,VALID,0,VALID,94.8034,VALID,0.105969,VALID,23.4,VALID,354,VALID,0,
2009-01-02, 03:06:04,VALID,1007.58,VALID,0,VALID,94.811,VALID,0.105969,VALID,23.4,VALID,354,VALID,0,
2009-01-02, 03:07:04,VALID,1007.55,VALID,0,VALID,94.7957,VALID,0.105969,VALID,23.4,VALID,354,VALID,0,
2009-01-02, 03:08:04,VALID,1007.5,VALID,0,VALID,94.811,VALID,0.105969,VALID,23.4194,VALID,354,VALID,0,
2009-01-02, 03:09:04,VALID,1007.5,VALID,0,VALID,94.8186,VALID,0.105969,VALID,23.4194,VALID,354,VALID,0,
2009-01-02, 03:10:04,VALID,1007.52,VALID,0,VALID,94.8339,VALID,0,VALID,23.4212,VALID,354,VALID,0,
2009-01-02, 03:11:04,VALID,1007.47,VALID,0,VALID,94.7957,VALID,0,VALID,23.4212,VALID,354,VALID,0,
2009-01-02, 03:12:04,VALID,1007.51,VALID,0,VALID,94.8034,VALID,0,VALID,23.4017,VALID,354,VALID,0,
2009-01-02, 03:13:04,VALID,1007.5,VALID,0,VALID,94.7957,VALID,0,VALID,23.4212,VALID,354,VALID,0,
2009-01-02, 03:14:04,VALID,1007.55,VALID,0,VALID,94.811,VALID,0,VALID,23.4,VALID,354,VALID,0,
2009-01-02, 03:15:04,VALID,1007.55,VALID,0,VALID,94.8034,VALID,0,VALID,23.3805,VALID,354,VALID,0.60625,
2009-01-02, 03:16:04,VALID,1007.57,VALID,0,VALID,94.7729,VALID,0,VALID,23.4017,VALID,353,VALID,0.762109,
2009-01-02, 03:17:04,VALID,1007.58,VALID,0,VALID,94.8034,VALID,0,VALID,23.3805,VALID,1,VALID,0.808594,
2009-01-02, 03:18:04,VALID,1007.58,VALID,0,VALID,94.811,VALID,0,VALID,23.3823,VALID,359,VALID,0.590234,
2009-01-02, 03:19:04,VALID,1007.59,VALID,0,VALID,94.8034,VALID,0,VALID,23.3823,VALID,357,VALID,0.580469,
2009-01-02, 03:20:04,VALID,1007.6,VALID,0,VALID,94.7957,VALID,0,VALID,23.3823,VALID,357,VALID,0.362891,
2009-01-02, 03:21:04,VALID,1007.6,VALID,0,VALID,94.811,VALID,0,VALID,23.3823,VALID,357,VALID,0.347266,
2009-01-02, 03:22:04,VALID,1007.61,VALID,0,VALID,94.7957,VALID,0,VALID,23.361,VALID,356,VALID,0.524219,
2009-01-02, 03:23:04,VALID,1007.61,VALID,0,VALID,94.7957,VALID,0,VALID,23.4017,VALID,352,VALID,0.321875,
2009-01-02, 03:24:04,VALID,1007.62,VALID,0,VALID,94.811,VALID,0,VALID,23.361,VALID,2,VALID,0.405078,
2009-01-02, 03:25:04,VALID,1007.62,VALID,0,VALID,94.7881,VALID,0,VALID,23.3823,VALID,2,VALID,0.553125,
2009-01-02, 03:26:04,VALID,1007.61,VALID,0,VALID,94.7652,VALID,0,VALID,23.3823,VALID,2,VALID,0.53125,
2009-01-02, 03:27:04,VALID,1007.63,VALID,0,VALID,94.7805,VALID,0,VALID,23.3628,VALID,2,VALID,0.422266,
2009-01-02, 03:28:04,VALID,1007.63,VALID,0,VALID,94.7881,VALID,0,VALID,23.3628,VALID,358,VALID,0.4625,
2009-01-02, 03:29:04,VALID,1007.65,VALID,0,VALID,94.7805,VALID,0,VALID,23.3823,VALID,354,VALID,0.174219,
2009-01-02, 03:30:04,VALID,1007.63,VALID,0,VALID,94.7881,VALID,0,VALID,23.3628,VALID,354,VALID,0.307813,
2009-01-02, 03:31:04,VALID,1007.64,VALID,0,VALID,94.8034,VALID,0,VALID,23.4035,VALID,354,VALID,0.26875,
2009-01-02, 03:32:04,VALID,1007.64,VALID,0,VALID,94.8262,VALID,0,VALID,23.4017,VALID,353,VALID,0.217969,
2009-01-02, 03:33:04,VALID,1007.67,VALID,0,VALID,94.811,VALID,0,VALID,23.3805,VALID,351,VALID,0.0386719,
2009-01-02, 03:34:04,VALID,1007.67,VALID,0,VALID,94.8262,VALID,0,VALID,23.4212,VALID,351,VALID,0.0207031,
2009-01-02, 03:35:04,VALID,1007.66,VALID,0,VALID,94.8262,VALID,0,VALID,23.4212,VALID,351,VALID,0.0683594,
2009-01-02, 03:36:04,VALID,1007.69,VALID,0,VALID,94.8339,VALID,0,VALID,23.4212,VALID,351,VALID,0.197656,
2009-01-02, 03:37:04,VALID,1007.69,VALID,0,VALID,94.8186,VALID,0,VALID,23.4212,VALID,351,VALID,0.121094,
2009-01-02, 03:38:04,VALID,1007.7,VALID,0,VALID,94.811,VALID,0,VALID,23.4212,VALID,351,VALID,0.0472656,
2009-01-02, 03:39:04,VALID,1007.71,VALID,0,VALID,94.8339,VALID,0,VALID,23.4425,VALID,351,VALID,0,
2009-01-02, 03:40:04,VALID,1007.69,VALID,0,VALID,94.8262,VALID,0.105969,VALID,23.4389,VALID,351,VALID,0.216797,
2009-01-02, 03:41:04,VALID,1007.72,VALID,0,VALID,94.8491,VALID,0.105969,VALID,23.4779,VALID,103,VALID,0.328516,
2009-01-02, 03:42:04,VALID,1007.7,VALID,0,VALID,94.8568,VALID,0.105969,VALID,23.4584,VALID,103,VALID,0.220313,
2009-01-02, 03:43:04,VALID,1007.68,VALID,0,VALID,94.872,VALID,0.105969,VALID,23.4974,VALID,103,VALID,0.121094,
2009-01-02, 03:44:04,VALID,1007.68,VALID,0,VALID,94.872,VALID,0.105969,VALID,23.4974,VALID,103,VALID,0,
2009-01-02, 03:45:04,VALID,1007.69,VALID,0,VALID,94.8873,VALID,0.105969,VALID,23.5558,VALID,102,VALID,0.447656,
2009-01-02, 03:46:04,VALID,1007.67,VALID,0,VALID,94.9025,VALID,0.105969,VALID,23.5948,VALID,76,VALID,0.585938,
2009-01-02, 03:47:04,VALID,1007.64,VALID,0,VALID,94.8949,VALID,0,VALID,23.5753,VALID,70,VALID,0.549219,
2009-01-02, 03:48:04,VALID,1007.64,VALID,0,VALID,94.8796,VALID,0,VALID,23.5363,VALID,63,VALID,0.75,
2009-01-02, 03:49:04,VALID,1007.6,VALID,0,VALID,94.8796,VALID,0.105969,VALID,23.5558,VALID,67,VALID,0.695703,
2009-01-02, 03:50:04,VALID,1007.65,VALID,0,VALID,94.8568,VALID,0.105969,VALID,23.5558,VALID,74,VALID,0.543359,
2009-01-02, 03:51:04,VALID,1007.64,VALID,0,VALID,94.8186,VALID,0.105969,VALID,23.5558,VALID,75,VALID,0.505078,
2009-01-02, 03:52:04,VALID,1007.67,VALID,0,VALID,94.8339,VALID,0.105969,VALID,23.5558,VALID,86,VALID,0.509375,
2009-01-02, 03:53:04,VALID,1007.69,VALID,0,VALID,94.7957,VALID,0,VALID,23.5363,VALID,86,VALID,0.480078,
2009-01-02, 03:54:04,VALID,1007.7,VALID,0,VALID,94.7729,VALID,0.105969,VALID,23.5558,VALID,86,VALID,0.373437,
2009-01-02, 03:55:04,VALID,1007.72,VALID,0,VALID,94.7576,VALID,0,VALID,23.5576,VALID,97,VALID,0.651953,